DW3128 Weather Reports


time (UTC)temp
C
wind
direction
speed
KPH
gust
KPH
rain 1hr
cm
rain 24hr
cm
rain mn
cm
humidity
%
barometer
mb
20260506204808 17 332 8.0 11.3 0.00 0.13 0.13 69 1013.0
20260506204309 17 358 4.8 9.7 0.00 0.13 0.13 70 1013.0
20260506203808 17 3 8.0 9.7 0.00 0.13 0.13 69 1013.2
20260506203309 17 352 4.8 14.5 0.00 0.13 0.13 70 1013.1
20260506202808 17 38 8.0 12.9 0.00 0.13 0.13 69 1012.7
20260506202309 17 329 3.2 14.5 0.00 0.13 0.13 69 1013.1
20260506201808 17 341 4.8 14.5 0.00 0.13 0.13 71 1013.1
20260506201308 17 8 9.7 14.5 0.00 0.13 0.13 69 1013.3
20260506200807 16 14 3.2 9.7 0.00 0.13 0.13 71 1013.5
20260506200308 16 314 4.8 9.7 0.00 0.13 0.13 71 1013.7
20260506195808 16 318 8.0 11.3 0.00 0.13 0.13 70 1013.4
20260506195309 16 43 6.4 12.9 0.00 0.13 0.13 70 1013.6
20260506194808 16 14 3.2 4.8 0.00 0.13 0.13 70 1013.5
20260506194308 16 24 4.8 9.7 0.00 0.13 0.13 71 1013.7
20260506193808 16 356 4.8 8.0 0.00 0.13 0.13 72 1013.7
20260506193308 16 2 6.4 11.3 0.00 0.13 0.13 71 1013.8
20260506192808 16 56 9.7 16.1 0.00 0.13 0.13 71 1014.1
20260506192308 16 8 11.3 14.5 0.00 0.13 0.13 71 1014.0
20260506191808 16 71 3.2 14.5 0.00 0.13 0.13 72 1014.0
20260506191309 15 348 6.4 14.5 0.00 0.13 0.13 72 1014.0
20260506190808 15 11 4.8 8.0 0.00 0.13 0.13 74 1014.1
20260506190308 15 320 8.0 11.3 0.00 0.13 0.13 74 1014.3
20260506185808 15 9 3.2 4.8 0.00 0.13 0.13 74 1014.0
20260506185308 15 58 1.6 8.0 0.00 0.13 0.13 74 1014.3
20260506184808 15 336 9.7 16.1 0.00 0.13 0.13 73 1014.5
20260506183807 15 336 3.2 11.3 0.00 0.13 0.13 74 1014.1
20260506183308 15 336 3.2 14.5 0.00 0.13 0.13 75 1014.1
20260506182308 15 347 11.3 27.4 0.00 0.13 0.13 77 1013.5
20260506181809 14 296 14.5 19.3 0.00 0.13 0.13 76 1013.3
20260506181308 14 25 17.7 19.3 0.00 0.13 0.13 76 1013.5
20260506180808 14 356 11.3 20.9 0.00 0.13 0.13 77 1013.5
20260506180308 13 335 9.7 19.3 0.00 0.13 0.13 78 1013.5
20260506175808 13 28 16.1 25.7 0.00 0.13 0.13 78 1013.5
20260506175308 13 349 14.5 32.2 0.00 0.13 0.13 79 1013.5
20260506174808 13 343 16.1 20.9 0.00 0.13 0.13 78 1013.7
20260506174308 13 329 9.7 25.7 0.00 0.13 0.13 79 1013.9
20260506173808 13 326 17.7 16.1 0.00 0.13 0.13 79 1014.0
20260506173308 13 303 11.3 19.3 0.00 0.13 0.13 80 1014.1
20260506171808 12 44 4.8 16.1 0.00 0.13 0.13 83 1013.9
20260506171308 12 343 9.7 20.9 0.00 0.13 0.13 83 1013.9
20260506170808 12 336 8.0 14.5 0.00 0.13 0.13 83 1013.7
20260506170308 12 350 8.0 19.3 0.00 0.13 0.13 84 1013.6
20260506165808 12 333 14.5 19.3 0.00 0.13 0.13 85 1013.6
20260506165308 12 7 11.3 12.9 0.00 0.13 0.13 85 1013.4
20260506164808 11 346 4.8 16.1 0.00 0.13 0.13 85 1013.8
20260506164308 11 5 4.8 16.1 0.00 0.13 0.13 86 1013.7
20260506163808 11 318 8.0 12.9 0.00 0.13 0.13 86 1013.8
20260506163308 11 321 11.3 16.1 0.00 0.13 0.13 86 1013.7
20260506162808 11 334 8.0 16.1 0.00 0.13 0.13 86 1013.9
20260506162308 11 332 6.4 16.1 0.00 0.13 0.13 86 1014.0
20260506161308 11 343 4.8 14.5 0.00 0.13 0.13 87 1013.7
20260506160808 11 345 12.9 20.9 0.00 0.13 0.13 87 1013.6
20260506160308 11 311 9.7 24.1 0.03 0.13 0.13 87 1013.6
20260506155308 11 322 12.9 27.4 0.03 0.13 0.13 88 1013.0
20260506154809 11 350 14.5 19.3 0.05 0.13 0.13 89 1012.9
20260506154307 11 298 16.1 29.0 0.08 0.13 0.13 88 1012.8
20260506153807 11 322 16.1 32.2 0.13 0.13 0.13 88 1012.9
20260506153308 11 322 16.1 20.9 0.13 0.13 0.13 88 1013.2
20260506152808 11 341 8.0 19.3 0.13 0.13 0.13 89 1013.4
20260506152308 11 345 8.0 14.5 0.13 0.13 0.13 89 1013.8
20260506151809 11 354 1.6 9.7 0.13 0.13 0.13 89 1014.0
20260506151308 11 317 11.3 16.1 0.13 0.13 0.13 89 1013.8
20260506150808 11 354 8.0 9.7 0.13 0.13 0.13 89 1013.4
20260506150308 11 328 6.4 9.7 0.10 0.10 0.10 89 1013.7
20260506144808 11 333 8.0 11.3 0.08 0.08 0.08 87 1014.5
20260506144308 11 288 8.0 8.0 0.05 0.05 0.05 87 1015.4
20260506143808 11 6 1.6 3.2 0.00 0.00 0.00 86 1015.3
20260506142308 11 333 8.0 12.9 0.00 0.00 0.00 86 1014.7
20260506141807 11 17 8.0 16.1 0.00 0.00 0.00 86 1013.6
20260506141308 11 342 4.8 14.5 0.00 0.00 0.00 86 1013.0
20260506140808 11 342 6.4 16.1 0.00 0.00 0.00 86 1013.1
20260506140308 11 325 11.3 19.3 0.00 0.00 0.00 86 1013.2
20260506135807 11 329 9.7 11.3 0.00 0.00 0.00 86 1013.6
20260506135308 11 346 11.3 16.1 0.00 0.00 0.00 86 1013.5
20260506134808 11 318 11.3 14.5 0.00 0.00 0.00 86 1014.3
20260506134308 11 299 4.8 14.5 0.00 0.00 0.00 86 1014.1
20260506133808 11 323 9.7 14.5 0.00 0.00 0.00 86 1014.1
20260506133307 11 286 12.9 20.9 0.00 0.00 0.00 86 1013.9
20260506132808 11 303 6.4 12.9 0.00 0.00 0.00 86 1013.6
20260506132307 11 310 6.4 14.5 0.00 0.00 0.00 85 1013.2
20260506131808 11 323 3.2 14.5 0.00 0.00 0.00 85 1012.9
20260506131308 11 322 9.7 19.3 0.00 0.00 0.00 85 1012.9
20260506130809 11 4 12.9 20.9 0.00 0.00 0.00 85 1012.8
20260506130308 11 335 11.3 14.5 0.00 0.00 0.00 84 1012.7
20260506125807 11 10 9.7 14.5 0.00 0.00 0.00 84 1012.6
20260506125308 11 315 11.3 16.1 0.00 0.00 0.00 84 1012.4
20260506124808 11 349 9.7 16.1 0.00 0.00 0.00 84 1012.4
20260506124308 11 316 9.7 19.3 0.00 0.00 0.00 84 1012.1
20260506123807 11 5 11.3 25.7 0.00 0.00 0.00 83 1012.0
20260506123308 11 338 11.3 14.5 0.00 0.00 0.00 83 1012.0
20260506122308 11 309 9.7 16.1 0.00 0.00 0.00 81 1012.1
20260506121808 11 350 9.7 16.1 0.00 0.00 0.00 81 1012.0
20260506121308 11 309 8.0 16.1 0.00 0.00 0.00 81 1011.9
20260506120808 11 348 11.3 14.5 0.00 0.00 0.00 80 1011.9
20260506120308 11 357 11.3 16.1 0.00 0.00 0.00 80 1011.8
20260506115807 12 306 20.9 24.1 0.00 0.00 0.00 80 1011.8
20260506115308 12 23 11.3 14.5 0.00 0.00 0.00 79 1011.6
20260506114808 12 334 11.3 20.9 0.00 0.00 0.00 79 1011.8
20260506114307 12 320 11.3 19.3 0.00 0.00 0.00 79 1011.8
20260506113808 12 280 8.0 19.3 0.00 0.00 0.00 79 1011.6
20260506113308 12 348 16.1 24.1 0.00 0.00 0.00 79 1011.6
20260506112808 12 320 14.5 14.5 0.00 0.00 0.00 78 1011.4
20260506112307 12 320 8.0 14.5 0.00 0.00 0.00 78 1011.2
20260506111808 12 296 17.7 20.9 0.00 0.00 0.00 78 1011.2
20260506111307 12 332 11.3 19.3 0.00 0.00 0.00 78 1011.0
20260506110308 13 311 9.7 14.5 0.00 0.00 0.00 77 1010.8
20260506105808 13 332 3.2 14.5 0.00 0.00 0.00 77 1010.7
20260506105307 13 344 3.2 8.0 0.00 0.00 0.00 77 1010.5
20260506104808 13 303 11.3 19.3 0.00 0.00 0.00 77 1010.6
20260506104307 13 313 11.3 20.9 0.00 0.00 0.00 77 1010.4
20260506103308 13 314 14.5 20.9 0.00 0.00 0.00 77 1010.3
20260506102807 13 303 9.7 19.3 0.00 0.00 0.00 77 1010.3
20260506102308 13 322 9.7 11.3 0.00 0.00 0.00 77 1010.2
20260506101808 13 352 8.0 14.5 0.00 0.00 0.00 77 1010.1
20260506100807 13 341 4.8 11.3 0.00 0.00 0.00 77 1009.9
20260506100308 13 318 6.4 11.3 0.00 0.00 0.00 77 1009.9
20260506095808 13 355 6.4 16.1 0.00 0.00 0.00 77 1009.7
20260506094807 13 305 8.0 9.7 0.00 0.00 0.00 77 1009.5
20260506093808 13 336 3.2 4.8 0.00 0.00 0.00 77 1009.3
20260506093308 13 354 8.0 9.7 0.00 0.00 0.00 77 1009.3
20260506092808 13 324 6.4 19.3 0.00 0.00 0.00 78 1009.3
20260506092308 13 326 9.7 14.5 0.00 0.00 0.00 77 1009.4
20260506091808 13 335 6.4 9.7 0.00 0.00 0.00 77 1009.5
20260506091309 13 1 3.2 8.0 0.00 0.00 0.00 77 1009.3
20260506090807 13 8 4.8 9.7 0.00 0.00 0.00 78 1009.3
20260506090308 14 1 3.2 11.3 0.00 0.00 0.00 78 1009.4
20260506085807 14 320 8.0 11.3 0.00 0.00 0.00 78 1009.3
20260506085307 14 0 4.8 8.0 0.00 0.00 0.00 78 1009.3
20260506084807 14 355 1.6 8.0 0.00 0.00 0.00 79 1009.3
20260506084308 14 312 4.8 11.3 0.00 0.00 0.00 79 1009.2
20260506083808 14 349 8.0 11.3 0.00 0.00 0.00 79 1009.1
20260506083307 14 336 8.0 14.5 0.00 0.00 0.00 79 1009.0
20260506082808 14 1 9.7 14.5 0.00 0.00 0.00 79 1008.9
20260506082308 14 337 8.0 11.3 0.00 0.00 0.00 79 1008.9
20260506081807 14 334 4.8 14.5 0.00 0.00 0.00 79 1008.9
20260506081307 14 358 6.4 11.3 0.00 0.00 0.00 79 1008.8
20260506080808 14 2 6.4 14.5 0.00 0.00 0.00 79 1008.8
20260506073307 14 330 6.4 12.9 0.00 0.00 0.00 81 1008.9
20260506072807 14 343 8.0 11.3 0.00 0.00 0.00 82 1008.9
20260506070807 15 342 1.6 3.2 0.00 0.00 0.00 81 1008.4
20260506070308 15 319 1.6 4.8 0.00 0.00 0.00 81 1008.4
20260506061808 15 5 8.0 16.1 0.00 0.00 0.00 78 1008.2
20260506060808 16 326 8.0 22.5 0.00 0.00 0.00 77 1008.4
20260506060308 16 349 3.2 11.3 0.00 0.00 0.00 78 1008.4
20260506050816 16 357 8.0 20.9 0.00 0.00 0.00 76 1008.4
20260506050307 16 314 11.3 16.1 0.00 0.00 0.00 76 1008.4
20260506044807 16 323 8.0 16.1 0.00 0.00 0.00 76 1008.4
20260506044307 17 10 12.9 20.9 0.00 0.00 0.00 75 1008.3
20260506043807 17 317 8.0 16.1 0.00 0.00 0.00 75 1008.3
20260506043308 17 3 3.2 16.1 0.00 0.00 0.00 75 1008.1
20260506042307 17 340 12.9 24.1 0.00 0.00 0.00 75 1008.2
20260506041807 17 316 12.9 16.1 0.00 0.00 0.00 74 1008.2
20260506041308 17 315 6.4 11.3 0.00 0.00 0.00 74 1008.3
20260506035307 17 335 12.9 19.3 0.00 0.00 0.00 74 1008.3
20260506034307 17 25 9.7 19.3 0.00 0.00 0.00 74 1008.1
20260506033807 18 315 11.3 20.9 0.00 0.00 0.00 74 1008.1
20260506033307 18 330 11.3 14.5 0.00 0.00 0.00 74 1007.8
20260506032807 18 352 8.0 20.9 0.00 0.00 0.00 74 1007.5
20260506032307 18 326 9.7 25.7 0.00 0.00 0.00 74 1007.4
20260506031807 18 318 11.3 19.3 0.00 0.00 0.00 73 1007.4
20260506031307 18 327 8.0 14.5 0.00 0.00 0.00 74 1007.3
20260506030808 18 310 4.8 11.3 0.00 0.00 0.00 75 1007.3
20260506030308 18 338 4.8 11.3 0.00 0.00 0.00 74 1007.2
20260506025808 18 346 11.3 16.1 0.00 0.00 0.00 74 1006.9
20260506025307 18 316 4.8 14.5 0.00 0.00 0.00 74 1006.8
20260506024807 18 328 4.8 8.0 0.00 0.00 0.00 73 1006.7
20260506024307 18 332 4.8 9.7 0.00 0.00 0.00 73 1006.6
20260506023807 18 346 6.4 11.3 0.00 0.00 0.00 72 1006.3
20260506023307 18 355 8.0 11.3 0.00 0.00 0.00 72 1006.2
20260506022808 19 339 6.4 9.7 0.00 0.00 0.00 72 1006.4
20260506022307 19 336 3.2 9.7 0.00 0.00 0.00 71 1006.2
20260506021807 19 323 8.0 12.9 0.00 0.00 0.00 71 1006.1
20260506021307 19 346 11.3 14.5 0.00 0.00 0.00 70 1006.2
20260506020807 19 337 14.5 20.9 0.00 0.00 0.00 70 1006.1
20260506020307 20 315 16.1 24.1 0.00 0.00 0.00 70 1006.2
20260506015807 20 356 9.7 16.1 0.00 0.00 0.00 70 1006.0
20260506015307 20 312 11.3 14.5 0.00 0.00 0.00 70 1006.1
20260506014807 20 318 9.7 16.1 0.00 0.00 0.00 71 1005.8
20260506013808 20 328 6.4 8.0 0.00 0.00 0.00 71 1005.5
20260506013307 21 314 9.7 16.1 0.00 0.00 0.00 70 1005.3
20260506012808 21 314 8.0 14.5 0.00 0.00 0.00 70 1005.2
20260506012308 21 337 8.0 14.5 0.00 0.00 0.00 69 1005.0
20260506011807 21 331 11.3 14.5 0.00 0.00 0.00 69 1004.9
20260506011308 21 346 9.7 14.5 0.00 0.00 0.00 69 1004.6
20260506010807 21 319 3.2 11.3 0.00 0.00 0.00 68 1004.4
20260506010307 21 337 8.0 11.3 0.00 0.00 0.00 67 1004.4
20260506005807 22 344 9.7 14.5 0.00 0.00 0.00 67 1004.1
20260506005307 22 15 8.0 12.9 0.00 0.00 0.00 67 1004.3
20260506004807 22 341 6.4 11.3 0.00 0.00 0.00 67 1004.5
20260506004307 22 338 3.2 9.7 0.00 0.00 0.00 67 1004.3
20260506003807 22 348 6.4 14.5 0.00 0.00 0.00 66 1004.2
20260506003307 22 18 11.3 16.1 0.00 0.00 0.00 66 1004.0
20260506002807 22 312 8.0 14.5 0.00 0.00 0.00 66 1003.8
20260506002308 23 317 6.4 16.1 0.00 0.00 0.00 66 1003.8
20260506001808 23 321 8.0 14.5 0.00 0.00 0.00 65 1003.5
20260506001307 23 308 12.9 19.3 0.00 0.00 0.00 64 1003.8
20260506000807 23 28 8.0 16.1 0.00 0.00 0.00 64 1003.7
20260506000309 23 323 6.4 12.9 0.00 0.00 0.00 64 1003.5
20260505235807 23 356 14.5 24.1 0.00 0.00 0.00 64 1003.5
20260505234307 24 338 17.7 25.7 0.00 0.00 0.00 63 1003.5
20260505233307 25 315 17.7 24.1 0.00 0.00 0.00 62 1003.4
20260505232807 25 333 11.3 24.1 0.00 0.00 0.00 61 1003.4
20260505232307 26 308 19.3 25.7 0.00 0.00 0.00 59 1003.3
20260505231307 26 318 17.7 20.9 0.00 0.00 0.00 58 1003.2
20260505230808 26 2 11.3 24.1 0.00 0.00 0.00 60 1003.2
20260505230307 26 331 11.3 19.3 0.00 0.00 0.00 59 1003.1
20260505225807 27 2 9.7 25.7 0.00 0.00 0.00 58 1002.9
20260505225307 27 349 22.5 27.4 0.00 0.00 0.00 57 1003.1
20260505224807 28 11 9.7 16.1 0.00 0.00 0.00 58 1003.1
20260505224307 28 312 12.9 19.3 0.00 0.00 0.00 57 1002.8
20260505223807 28 346 11.3 24.1 0.00 0.00 0.00 57 1002.7
20260505223307 29 311 14.5 19.3 0.00 0.00 0.00 56 1002.6
20260505222307 29 341 9.7 16.1 0.00 0.00 0.00 54 1002.5
20260505221308 30 353 9.7 14.5 0.00 0.00 0.00 50 1002.4
20260505220807 30 318 8.0 20.9 0.00 0.00 0.00 50 1002.4
20260505220307 30 330 11.3 16.1 0.00 0.00 0.00 48 1002.3
20260505215808 31 316 17.7 24.1 0.00 0.00 0.00 47 1002.3
20260505214807 31 18 9.7 16.1 0.00 0.00 0.00 48 1002.1
20260505214307 31 326 12.9 19.3 0.00 0.00 0.00 47 1002.1
20260505213807 32 355 11.3 20.9 0.00 0.00 0.00 47 1002.2
20260505211807 32 202 11.3 11.3 0.00 0.00 0.00 48 1002.2
20260505211307 32 266 6.4 9.7 0.00 0.00 0.00 49 1002.4
20260505205307 32 207 11.3 12.9 0.00 0.00 0.00 48 1002.6